When you browse on this site, cookies collect data to enhance your experience and personalize the content and advertising you see.
Visit our Privacy Policy to learn more. By continuing to use the site, you agree to this use of cookies and data.
  • en France
  • Liste des pays
  • À 7 jours
  • Température de l'eau
  • Carte satellitaire
  • Carte météo
  • Widgets météo
  • user-avatar
    Se connecter

    Météo par heure à Abbeville

    Ce jour, 17 Février, Dimanche

    Heure Température Précipitation Vent Pression Humidité
    00:00 +7°C° 0 mm 3 m/s 764 mmHg 88%
    01:00 +7°C° 0 mm 3 m/s 764 mmHg 87%
    02:00 +5°C° 0 mm 3 m/s 763 mmHg 86%
    03:00 +5°C° 0 mm 4 m/s 763 mmHg 85%
    04:00 +5°C° 0 mm 4 m/s 763 mmHg 83%
    05:00 +5°C° 0 mm 4 m/s 762 mmHg 81%
    06:00 +5°C° 0 mm 4 m/s 762 mmHg 79%
    07:00 +6°C° 0 mm 5 m/s 762 mmHg 75%
    08:00 +7°C° 0 mm 5 m/s 762 mmHg 71%
    09:00 +7°C° 0 mm 6 m/s 761 mmHg 67%
    10:00 +9°C° 0 mm 6 m/s 761 mmHg 64%
    11:00 +10°C° 0 mm 6 m/s 761 mmHg 60%
    12:00 +13°C° 0 mm 6 m/s 761 mmHg 56%
    13:00 +13°C° 0 mm 6 m/s 761 mmHg 58%
    14:00 +13°C° 0 mm 5 m/s 761 mmHg 60%
    15:00 +13°C° 0 mm 5 m/s 760 mmHg 61%
    16:00 +12°C° 0 mm 4 m/s 761 mmHg 67%
    17:00 +10°C° 0 mm 4 m/s 761 mmHg 73%
    18:00 +8°C° 0 mm 4 m/s 761 mmHg 80%
    19:00 +8°C° 0 mm 4 m/s 761 mmHg 81%
    20:00 +7°C° 0 mm 4 m/s 761 mmHg 82%
    21:00 +7°C° 0 mm 4 m/s 761 mmHg 84%
    22:00 +7°C° 0 mm 4 m/s 761 mmHg 85%
    23:00 +7°C° 0 mm 3 m/s 761 mmHg 86%

    Demain, 18 Février, Lundi

    Heure Température Précipitation Vent Pression Humidité
    00:00 +7°C° 0 mm 3 m/s 761 mmHg 87%
    01:00 +7°C° 0 mm 3 m/s 761 mmHg 87%
    02:00 +5°C° 0 mm 3 m/s 761 mmHg 87%
    03:00 +5°C° 0 mm 3 m/s 761 mmHg 87%
    04:00 +5°C° 0 mm 3 m/s 761 mmHg 86%
    05:00 +4°C° 0 mm 3 m/s 761 mmHg 86%
    06:00 +4°C° 0 mm 3 m/s 761 mmHg 85%
    07:00 +5°C° 0 mm 3 m/s 761 mmHg 84%
    08:00 +6°C° 0 mm 4 m/s 761 mmHg 82%
    09:00 +7°C° 0 mm 4 m/s 761 mmHg 81%
    10:00 +8°C° 0 mm 4 m/s 761 mmHg 77%
    11:00 +10°C° 0 mm 4 m/s 760 mmHg 73%
    12:00 +12°C° 0 mm 4 m/s 760 mmHg 69%
    13:00 +12°C° 0 mm 4 m/s 760 mmHg 69%
    14:00 +12°C° 0 mm 4 m/s 760 mmHg 69%
    15:00 +12°C° 0 mm 4 m/s 760 mmHg 68%
    16:00 +11°C° 0 mm 3 m/s 760 mmHg 76%
    17:00 +9°C° 0 mm 3 m/s 760 mmHg 84%
    18:00 +8°C° 0 mm 2 m/s 760 mmHg 92%
    19:00 +8°C° 0.2 mm 2 m/s 760 mmHg 93%
    20:00 +8°C° 0.2 mm 2 m/s 761 mmHg 94%
    21:00 +8°C° 0.2 mm 2 m/s 761 mmHg 96%
    22:00 +8°C° 0.4 mm 2 m/s 761 mmHg 96%
    23:00 +8°C° 0.4 mm 2 m/s 761 mmHg 95%

    Après-demain, 19 Février, Mardi

    Heure Température Précipitation Vent Pression Humidité
    00:00 +7°C° 0.4 mm 2 m/s 761 mmHg 95%
    01:00 +7°C° 0 mm 3 m/s 762 mmHg 95%
    02:00 +7°C° 0 mm 3 m/s 762 mmHg 95%
    03:00 +5°C° 0 mm 3 m/s 762 mmHg 95%
    04:00 +5°C° 0 mm 3 m/s 762 mmHg 94%
    05:00 +5°C° 0 mm 3 m/s 762 mmHg 93%
    06:00 +5°C° 0 mm 2 m/s 762 mmHg 92%
    07:00 +5°C° 0 mm 3 m/s 763 mmHg 89%
    08:00 +7°C° 0 mm 3 m/s 763 mmHg 86%
    09:00 +8°C° 0 mm 3 m/s 764 mmHg 83%
    10:00 +9°C° 0 mm 3 m/s 764 mmHg 78%
    11:00 +8°C° 0 mm 4 m/s 764 mmHg 74%
    12:00 +10°C° 0 mm 4 m/s 764 mmHg 69%
    13:00 +10°C° 0 mm 4 m/s 764 mmHg 69%
    14:00 +10°C° 0 mm 4 m/s 764 mmHg 69%
    15:00 +10°C° 0 mm 3 m/s 763 mmHg 68%
    16:00 +9°C° 0 mm 3 m/s 763 mmHg 74%
    17:00 +8°C° 0 mm 2 m/s 764 mmHg 79%
    18:00 +7°C° 0 mm 2 m/s 764 mmHg 84%
    19:00 +7°C° 0 mm 1 m/s 764 mmHg 85%
    20:00 +7°C° 0 mm 1 m/s 764 mmHg 85%
    21:00 +7°C° 0 mm 1 m/s 764 mmHg 85%
    22:00 +6°C° 0 mm 1 m/s 764 mmHg 84%
    23:00 +5°C° 0 mm 2 m/s 764 mmHg 83%

    20 Février, Mercredi

    Heure Température Précipitation Vent Pression Humidité
    00:00 +5°C° 0 mm 2 m/s 764 mmHg 82%
    01:00 +5°C° 0 mm 2 m/s 764 mmHg 83%
    02:00 +5°C° 0 mm 2 m/s 764 mmHg 84%
    03:00 +3°C° 0 mm 3 m/s 764 mmHg 85%
    04:00 +3°C° 0 mm 3 m/s 764 mmHg 87%
    05:00 +3°C° 0 mm 3 m/s 764 mmHg 88%
    06:00 +3°C° 0 mm 3 m/s 764 mmHg 90%
    07:00 +4°C° 0 mm 3 m/s 764 mmHg 87%
    08:00 +5°C° 0 mm 4 m/s 764 mmHg 84%
    09:00 +6°C° 0 mm 4 m/s 765 mmHg 82%
    10:00 +7°C° 0 mm 4 m/s 765 mmHg 77%
    11:00 +10°C° 0 mm 4 m/s 765 mmHg 72%
    12:00 +11°C° 0 mm 4 m/s 765 mmHg 68%
    13:00 +12°C° 0 mm 4 m/s 765 mmHg 67%
    14:00 +12°C° 0 mm 4 m/s 765 mmHg 67%
    15:00 +12°C° 0 mm 3 m/s 765 mmHg 67%
    16:00 +11°C° 0 mm 3 m/s 765 mmHg 73%
    17:00 +10°C° 0 mm 2 m/s 765 mmHg 79%
    18:00 +10°C° 0 mm 1 m/s 765 mmHg 86%
    19:00 +8°C° 0 mm 2 m/s 766 mmHg 87%
    20:00 +8°C° 0 mm 2 m/s 766 mmHg 88%
    21:00 +8°C° 0 mm 2 m/s 766 mmHg 89%
    22:00 +8°C° 0 mm 2 m/s 766 mmHg 90%
    23:00 +7°C° 0 mm 2 m/s 766 mmHg 91%

    21 Février, Jeudi

    Heure Température Précipitation Vent Pression Humidité
    00:00 +7°C° 0 mm 2 m/s 766 mmHg 92%
    01:00 +7°C° 0 mm 2 m/s 766 mmHg 92%
    02:00 +7°C° 0 mm 2 m/s 767 mmHg 92%
    03:00 +7°C° 0 mm 2 m/s 767 mmHg 92%
    04:00 +6°C° 0 mm 2 m/s 767 mmHg 92%
    05:00 +6°C° 0 mm 2 m/s 767 mmHg 92%
    06:00 +6°C° 0 mm 2 m/s 767 mmHg 92%
    07:00 +7°C° 0 mm 2 m/s 768 mmHg 90%
    08:00 +8°C° 0 mm 2 m/s 768 mmHg 88%
    09:00 +9°C° 0 mm 2 m/s 768 mmHg 86%
    10:00 +10°C° 0 mm 2 m/s 768 mmHg 80%
    11:00 +12°C° 0 mm 2 m/s 768 mmHg 75%
    12:00 +14°C° 0 mm 2 m/s 769 mmHg 70%
    13:00 +14°C° 0 mm 2 m/s 768 mmHg 68%
    14:00 +14°C° 0 mm 2 m/s 768 mmHg 67%
    15:00 +14°C° 0 mm 2 m/s 768 mmHg 65%
    16:00 +12°C° 0 mm 2 m/s 769 mmHg 72%
    17:00 +10°C° 0 mm 2 m/s 769 mmHg 79%
    18:00 +9°C° 0 mm 1 m/s 769 mmHg 86%
    19:00 +9°C° 0 mm 1 m/s 769 mmHg 86%
    20:00 +8°C° 0 mm 1 m/s 770 mmHg 86%
    21:00 +7°C° 0 mm 0 m/s 770 mmHg 86%
    22:00 +7°C° 0 mm 0 m/s 770 mmHg 85%
    23:00 +7°C° 0 mm 0 m/s 771 mmHg 85%

    22 Février, Vendredi

    Heure Température Précipitation Vent Pression Humidité
    00:00 +7°C° 0 mm 0 m/s 771 mmHg 85%
    01:00 +6°C° 0 mm 0 m/s 771 mmHg 85%
    02:00 +6°C° 0 mm 0 m/s 771 mmHg 85%
    03:00 +6°C° 0 mm 0 m/s 772 mmHg 85%
    04:00 +6°C° 0 mm 0 m/s 772 mmHg 85%
    05:00 +7°C° 0 mm 1 m/s 772 mmHg 85%
    06:00 +7°C° 0 mm 1 m/s 772 mmHg 85%
    07:00 +7°C° 0 mm 1 m/s 773 mmHg 83%
    08:00 +7°C° 0 mm 2 m/s 773 mmHg 80%
    09:00 +8°C° 0 mm 2 m/s 773 mmHg 77%
    10:00 +10°C° 0 mm 2 m/s 773 mmHg 70%
    11:00 +12°C° 0 mm 2 m/s 773 mmHg 64%
    12:00 +14°C° 0 mm 2 m/s 773 mmHg 58%
    13:00 +14°C° 0 mm 2 m/s 773 mmHg 58%
    14:00 +15°C° 0 mm 2 m/s 773 mmHg 58%
    15:00 +14°C° 0 mm 3 m/s 773 mmHg 58%
    16:00 +13°C° 0 mm 2 m/s 773 mmHg 63%
    17:00 +12°C° 0 mm 2 m/s 773 mmHg 69%
    18:00 +9°C° 0 mm 2 m/s 773 mmHg 75%
    19:00 +9°C° 0 mm 2 m/s 773 mmHg 78%
    20:00 +8°C° 0 mm 3 m/s 774 mmHg 81%
    21:00 +8°C° 0 mm 3 m/s 774 mmHg 83%
    22:00 +7°C° 0 mm 3 m/s 774 mmHg 86%
    23:00 +7°C° 0 mm 3 m/s 774 mmHg 88%
    Voir plus